Location: Bergnerzell
(49.1816°N, 10.2565°E)
Time: 09:01:55
(UTC+00:00)

Nimbus 7 Rocket - Pass Details

Date: 23 May 2024
Orbit: 922 x 964 km, 99.4° (Epoch: 15 June)

Event Time Altitude Azimuth Distance (km) Brightness Sun altitude
Rises 00:25:01 0° 14° (NNE) 3,620 9.2 -18.5°
Reaches altitude 10° 00:27:27 10° 13° (NNE) 2,677 8.1 -18.4°
Maximum altitude 00:33:27 78° 289° (WNW) 980 4.5 -18.1°
Enters shadow 00:36:43 29° 208° (SSW) 1,683 5.2 -17.9°
